,,,PA_Meas_PMT16A,,PR_Meas_QMR101_102,,RH_Meas_QMH101,,SR_Meas_QMS101,,TA_Meas_QMH101,,GenWind,,GenWind,
date,time,status,PA,status,PR,status,RH,status,SR,status,TA,status,DirAvg,status,SpdAvg,
2009-01-03, 00:00:04,VALID,1009.22,VALID,0,VALID,91.7836,VALID,0,VALID,24.764,VALID,144,VALID,0,
2009-01-03, 00:01:04,VALID,1009.24,VALID,0,VALID,91.7531,VALID,0,VALID,24.7445,VALID,143,VALID,0,
2009-01-03, 00:02:04,VALID,1009.21,VALID,0,VALID,91.7073,VALID,0,VALID,24.7445,VALID,124,VALID,0,
2009-01-03, 00:03:04,VALID,1009.23,VALID,0,VALID,91.6387,VALID,0,VALID,24.764,VALID,111,VALID,0,
2009-01-03, 00:04:04,VALID,1009.24,VALID,0,VALID,91.7378,VALID,0,VALID,24.7464,VALID,111,VALID,0,
2009-01-03, 00:05:04,VALID,1009.23,VALID,0,VALID,91.9285,VALID,0,VALID,24.764,VALID,111,VALID,0,
2009-01-03, 00:06:04,VALID,1009.2,VALID,0,VALID,91.9742,VALID,0,VALID,24.725,VALID,111,VALID,0,
2009-01-03, 00:07:04,VALID,1009.2,VALID,0,VALID,91.9895,VALID,0,VALID,24.7055,VALID,111,VALID,0,
2009-01-03, 00:08:04,VALID,1009.2,VALID,0,VALID,92.0276,VALID,0,VALID,24.7269,VALID,111,VALID,0,
2009-01-03, 00:09:04,VALID,1009.19,VALID,0,VALID,92.0505,VALID,0,VALID,24.686,VALID,111,VALID,0,
2009-01-03, 00:10:04,VALID,1009.2,VALID,0,VALID,91.9895,VALID,0,VALID,24.6879,VALID,111,VALID,0,
2009-01-03, 00:11:04,VALID,1009.18,VALID,0,VALID,91.9895,VALID,0,VALID,24.7074,VALID,111,VALID,0,
2009-01-03, 00:12:04,VALID,1009.2,VALID,0,VALID,91.9208,VALID,0,VALID,24.6666,VALID,111,VALID,0,
2009-01-03, 00:13:04,VALID,1009.23,VALID,0,VALID,92.0047,VALID,0,VALID,24.6666,VALID,111,VALID,0,
2009-01-03, 00:14:04,VALID,1009.2,VALID,0,VALID,91.9056,VALID,0,VALID,24.6684,VALID,111,VALID,0,
2009-01-03, 00:15:04,VALID,1009.22,VALID,0,VALID,91.7683,VALID,0.105969,VALID,24.6666,VALID,111,VALID,0,
2009-01-03, 00:16:04,VALID,1009.2,VALID,0,VALID,91.6768,VALID,0,VALID,24.6471,VALID,111,VALID,0,
2009-01-03, 00:17:04,VALID,1009.22,VALID,0,VALID,91.7378,VALID,0,VALID,24.686,VALID,113,VALID,0.00703125,
2009-01-03, 00:18:04,VALID,1009.22,VALID,0,VALID,91.6005,VALID,0,VALID,24.686,VALID,128,VALID,0.567187,
2009-01-03, 00:19:04,VALID,1009.2,VALID,0,VALID,91.6158,VALID,0,VALID,24.7074,VALID,128,VALID,0.26875,
2009-01-03, 00:20:04,VALID,1009.18,VALID,0,VALID,91.5777,VALID,0,VALID,24.686,VALID,128,VALID,0.461328,
2009-01-03, 00:21:04,VALID,1009.17,VALID,0,VALID,91.5243,VALID,0,VALID,24.686,VALID,127,VALID,0.952344,
2009-01-03, 00:22:04,VALID,1009.16,VALID,0,VALID,91.4404,VALID,0,VALID,24.686,VALID,128,VALID,0.679688,
2009-01-03, 00:23:04,VALID,1009.15,VALID,0,VALID,91.4404,VALID,0,VALID,24.6666,VALID,128,VALID,0.649219,
2009-01-03, 00:24:04,VALID,1009.14,VALID,0,VALID,91.5395,VALID,0,VALID,24.6666,VALID,128,VALID,0.677344,
2009-01-03, 00:25:04,VALID,1009.15,VALID,0,VALID,91.5777,VALID,0,VALID,24.6471,VALID,128,VALID,0.658984,
2009-01-03, 00:26:04,VALID,1009.15,VALID,0,VALID,91.6844,VALID,0,VALID,24.6276,VALID,137,VALID,0.704687,
2009-01-03, 00:27:04,VALID,1009.17,VALID,0,VALID,91.7149,VALID,0,VALID,24.6081,VALID,144,VALID,0.738672,
2009-01-03, 00:28:04,VALID,1009.19,VALID,0,VALID,91.7836,VALID,0,VALID,24.6081,VALID,123,VALID,0.317969,
2009-01-03, 00:29:04,VALID,1009.14,VALID,0,VALID,91.9132,VALID,0,VALID,24.5886,VALID,127,VALID,0.555078,
2009-01-03, 00:30:04,VALID,1009.14,VALID,0,VALID,91.9208,VALID,0,VALID,24.5691,VALID,127,VALID,0.489844,
2009-01-03, 00:31:04,VALID,1009.13,VALID,0,VALID,92.0505,VALID,0,VALID,24.5691,VALID,127,VALID,0.412891,
2009-01-03, 00:32:04,VALID,1009.13,VALID,0,VALID,92.1496,VALID,0,VALID,24.5496,VALID,127,VALID,0.272266,
2009-01-03, 00:33:04,VALID,1009.1,VALID,0,VALID,92.2335,VALID,0.105969,VALID,24.5106,VALID,127,VALID,0.232812,
2009-01-03, 00:34:04,VALID,1009.1,VALID,0,VALID,92.3174,VALID,0,VALID,24.5106,VALID,127,VALID,0,
2009-01-03, 00:35:04,VALID,1009.06,VALID,0,VALID,92.386,VALID,0,VALID,24.5106,VALID,127,VALID,0.177734,
2009-01-03, 00:36:04,VALID,1009.07,VALID,0,VALID,92.447,VALID,0,VALID,24.5106,VALID,127,VALID,0,
2009-01-03, 00:37:04,VALID,1009.02,VALID,0,VALID,92.4546,VALID,0,VALID,24.4911,VALID,127,VALID,0,
2009-01-03, 00:38:04,VALID,1009,VALID,0,VALID,92.5461,VALID,0.105969,VALID,24.4893,VALID,127,VALID,0,
2009-01-03, 00:39:04,VALID,1009.02,VALID,0,VALID,92.5843,VALID,0,VALID,24.4911,VALID,127,VALID,0,
2009-01-03, 00:40:04,VALID,1009,VALID,0,VALID,92.5766,VALID,0.105969,VALID,24.4522,VALID,127,VALID,0,
2009-01-03, 00:41:04,VALID,1008.98,VALID,0,VALID,92.5766,VALID,0.105969,VALID,24.4717,VALID,127,VALID,0,
2009-01-03, 00:42:04,VALID,1008.99,VALID,0,VALID,92.569,VALID,0.105969,VALID,24.4522,VALID,127,VALID,0,
2009-01-03, 00:43:04,VALID,1008.99,VALID,0,VALID,92.5843,VALID,0,VALID,24.4522,VALID,127,VALID,0,
2009-01-03, 00:44:04,VALID,1008.98,VALID,0,VALID,92.63,VALID,0,VALID,24.4522,VALID,127,VALID,0,
2009-01-03, 00:45:04,VALID,1008.99,VALID,0,VALID,92.6224,VALID,0.105969,VALID,24.4717,VALID,127,VALID,0,
2009-01-03, 00:46:04,VALID,1009,VALID,0,VALID,92.63,VALID,0,VALID,24.4522,VALID,127,VALID,0,
2009-01-03, 00:47:04,VALID,1009,VALID,0,VALID,92.6376,VALID,0,VALID,24.4717,VALID,127,VALID,0,
2009-01-03, 00:48:04,VALID,1009.01,VALID,0,VALID,92.6834,VALID,0,VALID,24.4717,VALID,127,VALID,0,
2009-01-03, 00:49:04,VALID,1008.99,VALID,0,VALID,92.7215,VALID,0,VALID,24.4911,VALID,127,VALID,0,
2009-01-03, 00:50:04,VALID,1008.98,VALID,0,VALID,92.7902,VALID,0,VALID,24.4911,VALID,127,VALID,0,
2009-01-03, 00:51:04,VALID,1008.97,VALID,0,VALID,92.8054,VALID,0,VALID,24.4717,VALID,127,VALID,0,
2009-01-03, 00:52:04,VALID,1008.95,VALID,0,VALID,92.7825,VALID,0.105969,VALID,24.4503,VALID,127,VALID,0,
2009-01-03, 00:53:04,VALID,1008.98,VALID,0,VALID,92.7902,VALID,0,VALID,24.4522,VALID,127,VALID,0,
2009-01-03, 00:54:04,VALID,1008.94,VALID,0,VALID,92.7978,VALID,0.105969,VALID,24.4717,VALID,127,VALID,0,
2009-01-03, 00:55:04,VALID,1008.93,VALID,0,VALID,92.7825,VALID,0,VALID,24.454,VALID,127,VALID,0,
2009-01-03, 00:56:04,VALID,1008.9,VALID,0,VALID,92.7444,VALID,0,VALID,24.454,VALID,127,VALID,0,
2009-01-03, 00:57:04,VALID,1008.92,VALID,0,VALID,92.7368,VALID,0,VALID,24.454,VALID,127,VALID,0,
2009-01-03, 00:58:04,VALID,1008.86,VALID,0,VALID,92.7749,VALID,0,VALID,24.454,VALID,127,VALID,0,
2009-01-03, 00:59:04,VALID,1008.83,VALID,0,VALID,92.7292,VALID,0,VALID,24.4735,VALID,128,VALID,0,
2009-01-03, 01:00:04,VALID,1008.8,VALID,0,VALID,92.7063,VALID,0,VALID,24.4735,VALID,128,VALID,0,
2009-01-03, 01:01:04,VALID,1008.8,VALID,0,VALID,92.7139,VALID,0,VALID,24.493,VALID,128,VALID,0,
2009-01-03, 01:02:04,VALID,1008.78,VALID,0,VALID,92.6834,VALID,0,VALID,24.4735,VALID,128,VALID,0,
2009-01-03, 01:03:04,VALID,1008.78,VALID,0,VALID,92.6758,VALID,0,VALID,24.4735,VALID,128,VALID,0,
2009-01-03, 01:04:04,VALID,1008.75,VALID,0,VALID,92.63,VALID,0,VALID,24.4735,VALID,128,VALID,0,
2009-01-03, 01:05:04,VALID,1008.71,VALID,0,VALID,92.6376,VALID,0,VALID,24.4949,VALID,128,VALID,0,
2009-01-03, 01:06:04,VALID,1008.7,VALID,0,VALID,92.6376,VALID,0,VALID,24.493,VALID,128,VALID,0,
2009-01-03, 01:07:04,VALID,1008.69,VALID,0,VALID,92.6453,VALID,0,VALID,24.493,VALID,128,VALID,0,
2009-01-03, 01:08:04,VALID,1008.69,VALID,0,VALID,92.6071,VALID,0,VALID,24.493,VALID,128,VALID,0,
2009-01-03, 01:09:04,VALID,1008.66,VALID,0,VALID,92.6758,VALID,0,VALID,24.4949,VALID,128,VALID,0,
2009-01-03, 01:10:04,VALID,1008.67,VALID,0,VALID,92.6987,VALID,0,VALID,24.4735,VALID,128,VALID,0,
2009-01-03, 01:11:04,VALID,1008.68,VALID,0,VALID,92.752,VALID,0,VALID,24.5144,VALID,128,VALID,0,
2009-01-03, 01:12:04,VALID,1008.65,VALID,0,VALID,92.8054,VALID,0,VALID,24.5533,VALID,128,VALID,0,
2009-01-03, 01:13:04,VALID,1008.66,VALID,0,VALID,92.8359,VALID,0,VALID,24.5338,VALID,128,VALID,0,
2009-01-03, 01:14:04,VALID,1008.64,VALID,0,VALID,92.8283,VALID,0,VALID,24.5125,VALID,128,VALID,0,
2009-01-03, 01:15:04,VALID,1008.65,VALID,0,VALID,92.8359,VALID,0,VALID,24.5144,VALID,128,VALID,0,
2009-01-03, 01:16:04,VALID,1008.65,VALID,0,VALID,92.8283,VALID,0,VALID,24.493,VALID,128,VALID,0,
2009-01-03, 01:17:04,VALID,1008.64,VALID,0,VALID,92.8359,VALID,0,VALID,24.5125,VALID,128,VALID,0,
2009-01-03, 01:18:04,VALID,1008.61,VALID,0,VALID,92.8588,VALID,0,VALID,24.493,VALID,128,VALID,0,
2009-01-03, 01:19:04,VALID,1008.6,VALID,0,VALID,92.8664,VALID,0,VALID,24.5125,VALID,128,VALID,0,
2009-01-03, 01:20:04,VALID,1008.61,VALID,0,VALID,92.8283,VALID,0,VALID,24.493,VALID,128,VALID,0,
2009-01-03, 01:21:04,VALID,1008.6,VALID,0,VALID,92.8893,VALID,0,VALID,24.493,VALID,128,VALID,0,
2009-01-03, 01:22:04,VALID,1008.57,VALID,0,VALID,92.8817,VALID,0,VALID,24.493,VALID,128,VALID,0,
2009-01-03, 01:23:04,VALID,1008.58,VALID,0,VALID,92.8969,VALID,0,VALID,24.5125,VALID,128,VALID,0,
2009-01-03, 01:24:04,VALID,1008.59,VALID,0,VALID,92.8588,VALID,0,VALID,24.5125,VALID,128,VALID,0,
2009-01-03, 01:25:04,VALID,1008.57,VALID,0,VALID,92.7444,VALID,0.105969,VALID,24.4911,VALID,128,VALID,0,
2009-01-03, 01:26:04,VALID,1008.57,VALID,0,VALID,92.7444,VALID,0,VALID,24.4911,VALID,128,VALID,0,
2009-01-03, 01:27:04,VALID,1008.58,VALID,0,VALID,92.7368,VALID,0.105969,VALID,24.532,VALID,128,VALID,0,
2009-01-03, 01:28:04,VALID,1008.54,VALID,0,VALID,92.7292,VALID,0,VALID,24.5106,VALID,128,VALID,0,
2009-01-03, 01:29:04,VALID,1008.55,VALID,0,VALID,92.6834,VALID,0.105969,VALID,24.4911,VALID,128,VALID,0,
2009-01-03, 01:30:04,VALID,1008.49,VALID,0,VALID,92.6834,VALID,0,VALID,24.5106,VALID,128,VALID,0,
2009-01-03, 01:31:04,VALID,1008.49,VALID,0,VALID,92.7825,VALID,0,VALID,24.5301,VALID,128,VALID,0,
2009-01-03, 01:32:04,VALID,1008.47,VALID,0,VALID,92.8588,VALID,0,VALID,24.5301,VALID,128,VALID,0,
2009-01-03, 01:33:04,VALID,1008.47,VALID,0,VALID,92.8588,VALID,0.105969,VALID,24.5125,VALID,67,VALID,0,
2009-01-03, 01:34:04,VALID,1008.43,VALID,0,VALID,92.8359,VALID,0,VALID,24.493,VALID,67,VALID,0,
2009-01-03, 01:35:04,VALID,1008.43,VALID,0,VALID,92.8359,VALID,0,VALID,24.493,VALID,67,VALID,0,
2009-01-03, 01:36:04,VALID,1008.4,VALID,0,VALID,92.8512,VALID,0,VALID,24.4717,VALID,67,VALID,0,
2009-01-03, 01:37:04,VALID,1008.39,VALID,0,VALID,92.9351,VALID,0,VALID,24.4949,VALID,67,VALID,0,
2009-01-03, 01:38:04,VALID,1008.41,VALID,0,VALID,92.9427,VALID,0,VALID,24.4345,VALID,67,VALID,0,
2009-01-03, 01:39:04,VALID,1008.37,VALID,0,VALID,92.9961,VALID,0,VALID,24.4327,VALID,67,VALID,0,
2009-01-03, 01:40:04,VALID,1008.34,VALID,0,VALID,93.0723,VALID,0,VALID,24.454,VALID,109,VALID,0,
2009-01-03, 01:41:04,VALID,1008.36,VALID,0,VALID,93.141,VALID,0,VALID,24.454,VALID,109,VALID,0,
2009-01-03, 01:42:04,VALID,1008.36,VALID,0,VALID,93.2172,VALID,0,VALID,24.454,VALID,109,VALID,0,
2009-01-03, 01:43:04,VALID,1008.35,VALID,0,VALID,93.2401,VALID,0,VALID,24.4327,VALID,109,VALID,0,
2009-01-03, 01:44:04,VALID,1008.33,VALID,0,VALID,93.2325,VALID,0,VALID,24.4345,VALID,109,VALID,0,
2009-01-03, 01:45:04,VALID,1008.33,VALID,0,VALID,93.2401,VALID,0,VALID,24.415,VALID,109,VALID,0,
2009-01-03, 01:46:04,VALID,1008.32,VALID,0,VALID,93.3392,VALID,0,VALID,24.4345,VALID,109,VALID,0,
2009-01-03, 01:47:04,VALID,1008.29,VALID,0,VALID,93.3621,VALID,0,VALID,24.4132,VALID,109,VALID,0,
2009-01-03, 01:48:04,VALID,1008.29,VALID,0,VALID,93.3545,VALID,0,VALID,24.3937,VALID,109,VALID,0,
2009-01-03, 01:49:04,VALID,1008.26,VALID,0,VALID,93.2935,VALID,0,VALID,24.3937,VALID,109,VALID,0,
2009-01-03, 01:50:04,VALID,1008.27,VALID,0,VALID,93.263,VALID,0,VALID,24.3937,VALID,109,VALID,0,
2009-01-03, 01:51:04,VALID,1008.25,VALID,0,VALID,93.2553,VALID,0,VALID,24.3937,VALID,109,VALID,0,
2009-01-03, 01:52:04,VALID,1008.26,VALID,0,VALID,93.2096,VALID,0,VALID,24.3937,VALID,109,VALID,0,
2009-01-03, 01:53:04,VALID,1008.25,VALID,0,VALID,93.2248,VALID,0,VALID,24.4132,VALID,109,VALID,0,
2009-01-03, 01:54:04,VALID,1008.23,VALID,0,VALID,93.2096,VALID,0,VALID,24.4132,VALID,109,VALID,0,
2009-01-03, 01:55:04,VALID,1008.2,VALID,0,VALID,93.1867,VALID,0.105969,VALID,24.3937,VALID,109,VALID,0,
2009-01-03, 01:56:04,VALID,1008.2,VALID,0,VALID,93.2172,VALID,0.105969,VALID,24.3937,VALID,109,VALID,0,
2009-01-03, 01:57:04,VALID,1008.19,VALID,0,VALID,93.2706,VALID,0.105969,VALID,24.3547,VALID,109,VALID,0,
2009-01-03, 01:58:04,VALID,1008.19,VALID,0,VALID,93.3011,VALID,0.105969,VALID,24.3547,VALID,109,VALID,0,
2009-01-03, 01:59:04,VALID,1008.21,VALID,0,VALID,93.3545,VALID,0,VALID,24.3158,VALID,109,VALID,0,
2009-01-03, 02:00:04,VALID,1008.2,VALID,0,VALID,93.4002,VALID,0,VALID,24.3158,VALID,67,VALID,0,
2009-01-03, 02:01:04,VALID,1008.21,VALID,0,VALID,93.4689,VALID,0.105969,VALID,24.2963,VALID,67,VALID,0,
2009-01-03, 02:02:04,VALID,1008.2,VALID,0,VALID,93.507,VALID,0.105969,VALID,24.2768,VALID,38,VALID,0,
2009-01-03, 02:03:04,VALID,1008.19,VALID,0,VALID,93.568,VALID,0.105969,VALID,24.2768,VALID,38,VALID,0,
2009-01-03, 02:04:04,VALID,1008.18,VALID,0,VALID,93.6214,VALID,0.105969,VALID,24.2573,VALID,38,VALID,0,
2009-01-03, 02:05:04,VALID,1008.19,VALID,0,VALID,93.6824,VALID,0.105969,VALID,24.2378,VALID,38,VALID,0,
2009-01-03, 02:06:04,VALID,1008.21,VALID,0,VALID,93.69,VALID,0,VALID,24.2378,VALID,38,VALID,0,
2009-01-03, 02:07:04,VALID,1008.2,VALID,0,VALID,93.7434,VALID,0,VALID,24.2183,VALID,38,VALID,0,
2009-01-03, 02:08:04,VALID,1008.22,VALID,0,VALID,93.7968,VALID,0,VALID,24.2183,VALID,38,VALID,0,
2009-01-03, 02:09:04,VALID,1008.24,VALID,0,VALID,93.8196,VALID,0.105969,VALID,24.2183,VALID,38,VALID,0,
2009-01-03, 02:10:04,VALID,1008.25,VALID,0,VALID,93.8425,VALID,0.105969,VALID,24.2183,VALID,38,VALID,0,
2009-01-03, 02:11:04,VALID,1008.23,VALID,0,VALID,93.8883,VALID,0,VALID,24.2183,VALID,38,VALID,0,
2009-01-03, 02:12:04,VALID,1008.25,VALID,0,VALID,93.9112,VALID,0,VALID,24.1988,VALID,38,VALID,0,
2009-01-03, 02:13:04,VALID,1008.26,VALID,0,VALID,93.934,VALID,0.105969,VALID,24.1988,VALID,38,VALID,0,
2009-01-03, 02:14:04,VALID,1008.25,VALID,0,VALID,93.9722,VALID,0.105969,VALID,24.2183,VALID,38,VALID,0,
2009-01-03, 02:15:04,VALID,1008.23,VALID,0,VALID,94.0179,VALID,0.105969,VALID,24.2378,VALID,38,VALID,0,
2009-01-03, 02:16:04,VALID,1008.26,VALID,0,VALID,94.0637,VALID,0.105969,VALID,24.2378,VALID,38,VALID,0,
2009-01-03, 02:17:04,VALID,1008.25,VALID,0,VALID,94.0789,VALID,0.105969,VALID,24.2378,VALID,38,VALID,0,
2009-01-03, 02:18:04,VALID,1008.24,VALID,0,VALID,94.1247,VALID,0,VALID,24.2591,VALID,38,VALID,0,
2009-01-03, 02:19:04,VALID,1008.23,VALID,0,VALID,94.1399,VALID,0,VALID,24.2183,VALID,38,VALID,0,
2009-01-03, 02:20:04,VALID,1008.24,VALID,0,VALID,94.1476,VALID,0.105969,VALID,24.2378,VALID,38,VALID,0,
2009-01-03, 02:21:04,VALID,1008.22,VALID,0,VALID,94.1628,VALID,0.105969,VALID,24.2183,VALID,38,VALID,0,
2009-01-03, 02:22:04,VALID,1008.21,VALID,0,VALID,94.1704,VALID,0.105969,VALID,24.2183,VALID,38,VALID,0,
2009-01-03, 02:23:04,VALID,1008.22,VALID,0,VALID,94.1781,VALID,0,VALID,24.2183,VALID,38,VALID,0,
2009-01-03, 02:24:04,VALID,1008.23,VALID,0,VALID,94.2086,VALID,0.105969,VALID,24.2183,VALID,38,VALID,0,
2009-01-03, 02:25:04,VALID,1008.2,VALID,0,VALID,94.2238,VALID,0,VALID,24.2378,VALID,38,VALID,0,
2009-01-03, 02:26:04,VALID,1008.2,VALID,0,VALID,94.2238,VALID,0.105969,VALID,24.197,VALID,38,VALID,0,
2009-01-03, 02:27:04,VALID,1008.2,VALID,0,VALID,94.2391,VALID,0,VALID,24.2183,VALID,38,VALID,0,
2009-01-03, 02:28:04,VALID,1008.21,VALID,0,VALID,94.2543,VALID,0.105969,VALID,24.2183,VALID,38,VALID,0,
2009-01-03, 02:29:04,VALID,1008.18,VALID,0,VALID,94.2696,VALID,0.105969,VALID,24.197,VALID,38,VALID,0,
2009-01-03, 02:30:04,VALID,1008.19,VALID,0,VALID,94.2543,VALID,0.105969,VALID,24.1988,VALID,38,VALID,0,
2009-01-03, 02:31:04,VALID,1008.22,VALID,0,VALID,94.2696,VALID,0.105969,VALID,24.2378,VALID,38,VALID,0,
2009-01-03, 02:32:04,VALID,1008.21,VALID,0,VALID,94.3153,VALID,0.105969,VALID,24.2183,VALID,38,VALID,0,
2009-01-03, 02:33:04,VALID,1008.18,VALID,0,VALID,94.3077,VALID,0.105969,VALID,24.2378,VALID,38,VALID,0,
2009-01-03, 02:34:04,VALID,1008.16,VALID,0,VALID,94.3458,VALID,0.105969,VALID,24.2573,VALID,38,VALID,0,
2009-01-03, 02:35:04,VALID,1008.16,VALID,0,VALID,94.3763,VALID,0,VALID,24.2768,VALID,38,VALID,0,
2009-01-03, 02:36:04,VALID,1008.13,VALID,0,VALID,94.3687,VALID,0.105969,VALID,24.2573,VALID,38,VALID,0,
2009-01-03, 02:37:04,VALID,1008.14,VALID,0,VALID,94.4068,VALID,0.105969,VALID,24.2555,VALID,38,VALID,0,
2009-01-03, 02:38:04,VALID,1008.14,VALID,0,VALID,94.3916,VALID,0,VALID,24.2963,VALID,38,VALID,0,
2009-01-03, 02:39:04,VALID,1008.15,VALID,0,VALID,94.4221,VALID,0.105969,VALID,24.2963,VALID,38,VALID,0,
2009-01-03, 02:40:04,VALID,1008.13,VALID,0,VALID,94.3992,VALID,0,VALID,24.3176,VALID,38,VALID,0,
2009-01-03, 02:41:04,VALID,1008.13,VALID,0,VALID,94.4221,VALID,0,VALID,24.3176,VALID,38,VALID,0,
2009-01-03, 02:42:04,VALID,1008.12,VALID,0,VALID,94.4297,VALID,0,VALID,24.3566,VALID,38,VALID,0,
2009-01-03, 02:43:04,VALID,1008.12,VALID,0,VALID,94.4373,VALID,0,VALID,24.3371,VALID,38,VALID,0,
2009-01-03, 02:44:04,VALID,1008.1,VALID,0,VALID,94.4145,VALID,0,VALID,24.3566,VALID,38,VALID,0,
2009-01-03, 02:45:04,VALID,1008.12,VALID,0,VALID,94.3992,VALID,0,VALID,24.3761,VALID,38,VALID,0,
2009-01-03, 02:46:04,VALID,1008.13,VALID,0,VALID,94.3992,VALID,0,VALID,24.3547,VALID,38,VALID,0,
2009-01-03, 02:47:04,VALID,1008.1,VALID,0,VALID,94.3839,VALID,0,VALID,24.3956,VALID,38,VALID,0,
2009-01-03, 02:48:04,VALID,1008.12,VALID,0,VALID,94.3611,VALID,0,VALID,24.3742,VALID,38,VALID,0,
2009-01-03, 02:49:04,VALID,1008.08,VALID,0,VALID,94.3458,VALID,0,VALID,24.415,VALID,38,VALID,0,
2009-01-03, 02:50:04,VALID,1008.03,VALID,0,VALID,94.3001,VALID,0,VALID,24.4345,VALID,83,VALID,0,
2009-01-03, 02:51:04,VALID,1008.05,VALID,0,VALID,94.2848,VALID,0,VALID,24.4345,VALID,102,VALID,0,
2009-01-03, 02:52:04,VALID,1007.99,VALID,0,VALID,94.2467,VALID,0,VALID,24.454,VALID,102,VALID,0,
2009-01-03, 02:53:04,VALID,1008.04,VALID,0,VALID,94.2238,VALID,0,VALID,24.454,VALID,102,VALID,0,
2009-01-03, 02:54:04,VALID,1008.03,VALID,0,VALID,94.2009,VALID,0,VALID,24.4735,VALID,102,VALID,0,
2009-01-03, 02:55:04,VALID,1008.01,VALID,0,VALID,94.2009,VALID,0,VALID,24.4735,VALID,102,VALID,0,
2009-01-03, 02:56:04,VALID,1008.01,VALID,0,VALID,94.1704,VALID,0,VALID,24.4735,VALID,102,VALID,0,
2009-01-03, 02:57:04,VALID,1008.02,VALID,0,VALID,94.1476,VALID,0,VALID,24.4735,VALID,102,VALID,0,
2009-01-03, 02:58:04,VALID,1008,VALID,0,VALID,94.1094,VALID,0,VALID,24.4735,VALID,102,VALID,0,
2009-01-03, 02:59:04,VALID,1007.95,VALID,0,VALID,94.0789,VALID,0,VALID,24.4735,VALID,102,VALID,0,
2009-01-03, 03:00:04,VALID,1007.98,VALID,0,VALID,94.0637,VALID,0,VALID,24.493,VALID,102,VALID,0,
2009-01-03, 03:01:04,VALID,1008,VALID,0,VALID,94.0408,VALID,0,VALID,24.454,VALID,102,VALID,0,
2009-01-03, 03:02:04,VALID,1008,VALID,0,VALID,94.0179,VALID,0,VALID,24.4735,VALID,102,VALID,0,
2009-01-03, 03:03:04,VALID,1007.98,VALID,0,VALID,94.0255,VALID,0,VALID,24.454,VALID,102,VALID,0,
2009-01-03, 03:04:04,VALID,1007.98,VALID,0,VALID,94.0027,VALID,0,VALID,24.454,VALID,102,VALID,0,
2009-01-03, 03:05:04,VALID,1007.99,VALID,0,VALID,93.9645,VALID,0,VALID,24.4735,VALID,102,VALID,0,
2009-01-03, 03:06:04,VALID,1007.94,VALID,0,VALID,93.9645,VALID,0,VALID,24.4735,VALID,102,VALID,0,
2009-01-03, 03:07:04,VALID,1007.91,VALID,0,VALID,93.9417,VALID,0,VALID,24.4735,VALID,125,VALID,0,
2009-01-03, 03:08:04,VALID,1007.92,VALID,0,VALID,93.9112,VALID,0,VALID,24.4735,VALID,132,VALID,0,
2009-01-03, 03:09:04,VALID,1007.9,VALID,0,VALID,93.8425,VALID,0,VALID,24.4735,VALID,132,VALID,0,
2009-01-03, 03:10:04,VALID,1007.88,VALID,0,VALID,93.812,VALID,0,VALID,24.454,VALID,132,VALID,0,
2009-01-03, 03:11:04,VALID,1007.89,VALID,0,VALID,93.7815,VALID,0,VALID,24.454,VALID,132,VALID,0,
2009-01-03, 03:12:04,VALID,1007.88,VALID,0,VALID,93.7815,VALID,0,VALID,24.454,VALID,132,VALID,0,
2009-01-03, 03:13:04,VALID,1007.88,VALID,0,VALID,93.7739,VALID,0,VALID,24.454,VALID,132,VALID,0,
2009-01-03, 03:14:04,VALID,1007.88,VALID,0,VALID,93.7891,VALID,0,VALID,24.4754,VALID,132,VALID,0,
2009-01-03, 03:15:04,VALID,1007.86,VALID,0,VALID,93.7663,VALID,0,VALID,24.4345,VALID,132,VALID,0,
2009-01-03, 03:16:04,VALID,1007.87,VALID,0,VALID,93.69,VALID,0,VALID,24.3956,VALID,132,VALID,0,
2009-01-03, 03:17:04,VALID,1007.89,VALID,0,VALID,93.6824,VALID,0,VALID,24.3761,VALID,132,VALID,0,
2009-01-03, 03:18:04,VALID,1007.89,VALID,0,VALID,93.7434,VALID,0,VALID,24.3761,VALID,133,VALID,0,
2009-01-03, 03:19:04,VALID,1007.91,VALID,0,VALID,93.7815,VALID,0,VALID,24.3566,VALID,134,VALID,0,
2009-01-03, 03:20:04,VALID,1007.9,VALID,0,VALID,93.812,VALID,0,VALID,24.3371,VALID,134,VALID,0,
2009-01-03, 03:21:04,VALID,1007.91,VALID,0,VALID,93.8578,VALID,0,VALID,24.3566,VALID,134,VALID,0,
2009-01-03, 03:22:04,VALID,1007.94,VALID,0,VALID,93.8959,VALID,0,VALID,24.3779,VALID,134,VALID,0,
2009-01-03, 03:23:04,VALID,1007.91,VALID,0,VALID,93.9417,VALID,0,VALID,24.3566,VALID,134,VALID,0,
2009-01-03, 03:24:04,VALID,1007.92,VALID,0,VALID,93.9874,VALID,0,VALID,24.3371,VALID,134,VALID,0,
2009-01-03, 03:25:04,VALID,1007.94,VALID,0,VALID,94.0027,VALID,0,VALID,24.3566,VALID,134,VALID,0,
2009-01-03, 03:26:04,VALID,1007.97,VALID,0,VALID,94.0179,VALID,0,VALID,24.3371,VALID,134,VALID,0,
2009-01-03, 03:27:04,VALID,1007.99,VALID,0,VALID,94.0255,VALID,0,VALID,24.3566,VALID,134,VALID,0,
2009-01-03, 03:28:04,VALID,1008,VALID,0,VALID,94.0408,VALID,0,VALID,24.3566,VALID,134,VALID,0,
2009-01-03, 03:29:04,VALID,1008,VALID,0,VALID,94.0713,VALID,0,VALID,24.3956,VALID,134,VALID,0,
2009-01-03, 03:30:04,VALID,1007.99,VALID,0,VALID,94.056,VALID,0,VALID,24.3779,VALID,134,VALID,0,
2009-01-03, 03:31:04,VALID,1008.04,VALID,0,VALID,94.0789,VALID,0,VALID,24.3566,VALID,134,VALID,0,
2009-01-03, 03:32:04,VALID,1008.02,VALID,0,VALID,94.0789,VALID,0,VALID,24.3566,VALID,134,VALID,0,
2009-01-03, 03:33:04,VALID,1008.06,VALID,0,VALID,94.0789,VALID,0,VALID,24.3566,VALID,134,VALID,0,
2009-01-03, 03:34:04,VALID,1008.08,VALID,0,VALID,94.0637,VALID,0,VALID,24.3566,VALID,134,VALID,0,
2009-01-03, 03:35:04,VALID,1008.09,VALID,0,VALID,94.0637,VALID,0,VALID,24.3566,VALID,134,VALID,0,
2009-01-03, 03:36:04,VALID,1008.1,VALID,0,VALID,94.0713,VALID,0,VALID,24.3371,VALID,134,VALID,0,
2009-01-03, 03:37:04,VALID,1008.08,VALID,0,VALID,94.0713,VALID,0,VALID,24.3371,VALID,134,VALID,0,
2009-01-03, 03:38:04,VALID,1008.1,VALID,0,VALID,94.0789,VALID,0,VALID,24.3371,VALID,132,VALID,0,
2009-01-03, 03:39:04,VALID,1008.12,VALID,0,VALID,94.0942,VALID,0,VALID,24.3371,VALID,132,VALID,0,
2009-01-03, 03:40:04,VALID,1008.12,VALID,0,VALID,94.1018,VALID,0,VALID,24.3158,VALID,132,VALID,0,
2009-01-03, 03:41:04,VALID,1008.11,VALID,0,VALID,94.0713,VALID,0.105969,VALID,24.3371,VALID,132,VALID,0,
2009-01-03, 03:42:04,VALID,1008.13,VALID,0,VALID,94.1094,VALID,0,VALID,24.3352,VALID,132,VALID,0,
2009-01-03, 03:43:04,VALID,1008.12,VALID,0,VALID,94.1323,VALID,0.105969,VALID,24.3158,VALID,130,VALID,0,
2009-01-03, 03:44:04,VALID,1008.1,VALID,0,VALID,94.1171,VALID,0.105969,VALID,24.3176,VALID,130,VALID,0,
2009-01-03, 03:45:04,VALID,1008.1,VALID,0,VALID,94.1399,VALID,0.105969,VALID,24.3158,VALID,130,VALID,0,
2009-01-03, 03:46:04,VALID,1008.08,VALID,0,VALID,94.1552,VALID,0.105969,VALID,24.2963,VALID,130,VALID,0,
2009-01-03, 03:47:04,VALID,1008.07,VALID,0,VALID,94.1476,VALID,0,VALID,24.2786,VALID,130,VALID,0,
2009-01-03, 03:48:04,VALID,1008.07,VALID,0,VALID,94.1552,VALID,0.105969,VALID,24.2573,VALID,130,VALID,0,
2009-01-03, 03:49:04,VALID,1008.05,VALID,0,VALID,94.1552,VALID,0,VALID,24.2378,VALID,127,VALID,0,
2009-01-03, 03:50:04,VALID,1008.03,VALID,0,VALID,94.1476,VALID,0,VALID,24.2786,VALID,109,VALID,0,
2009-01-03, 03:51:04,VALID,1008.02,VALID,0,VALID,94.1781,VALID,0.105969,VALID,24.2768,VALID,109,VALID,0,
2009-01-03, 03:52:04,VALID,1008.03,VALID,0,VALID,94.1781,VALID,0.105969,VALID,24.2378,VALID,109,VALID,0,
2009-01-03, 03:53:04,VALID,1008.04,VALID,0,VALID,94.1704,VALID,0,VALID,24.2183,VALID,305,VALID,0.367969,
2009-01-03, 03:54:04,VALID,1008.01,VALID,0,VALID,94.1628,VALID,0,VALID,24.2007,VALID,305,VALID,0.298047,
2009-01-03, 03:55:04,VALID,1008.02,VALID,0,VALID,94.1781,VALID,0.105969,VALID,24.1988,VALID,305,VALID,0,
2009-01-03, 03:56:04,VALID,1008.03,VALID,0,VALID,94.1933,VALID,0.105969,VALID,24.1988,VALID,305,VALID,0,